This is the latest recevied weather packets stored in our database for station/object VA3PC-13. If no packets are shown the sender has not sent any weather packets the latest 10 day(s).
| Time | Temp. | Humidity | Pressure | Rain* | Wind** | Luminosity | Snow |
|---|---|---|---|---|---|---|---|
| 1777538740 | 3.33° C | 73% | 981.8 hPa | 0 mm | - | 0 W/m² | - |
| 1777529119 | 3.89° C | 73% | 982 hPa | 0 mm | - | 0 W/m² | - |
| 1777520738 | 4.44° C | 73% | 982.5 hPa | 0 mm | - | 0 W/m² | - |
| 1777514719 | 6.11° C | 71% | 982.4 hPa | 0 mm | - | 0 W/m² | - |
| 1777514117 | 6.11° C | 72% | 982.5 hPa | 0 mm | - | 0 W/m² | - |
| 1777512920 | 6.67° C | 71% | 982.4 hPa | 0 mm | - | 0 W/m² | - |
| 1777510517 | 7.22° C | 69% | 982.3 hPa | 0 mm | - | 0 W/m² | - |
| 1777505719 | 7.22° C | 72% | 981.9 hPa | 0 mm | - | 17 W/m² | - |
| 1777502719 | 8.33° C | 64% | 981.6 hPa | 0 mm | - | 100 W/m² | - |
| 1777499717 | 8.33° C | 65% | 981.7 hPa | 0 mm | - | 117 W/m² | - |
| 1777496139 | 8.33° C | 64% | 981.8 hPa | 0 mm | - | 245 W/m² | - |
| 1777491921 | 7.78° C | 65% | 981.7 hPa | 0 mm | - | 364 W/m² | - |
| 1777489519 | 7.22° C | 67% | 981.8 hPa | 0 mm | - | 271 W/m² | - |
| 1777488920 | 7.22° C | 67% | 982.1 hPa | 0 mm | - | 236 W/m² | - |
| 1777488319 | 7.22° C | 69% | 982.2 hPa | 0 mm | - | 235 W/m² | - |
| 1777487719 | 6.67° C | 69% | 982 hPa | 0 mm | - | 333 W/m² | - |
| 1777487139 | 6.67° C | 68% | 982.2 hPa | 0 mm | - | 319 W/m² | - |
| 1777483517 | 6.11° C | 71% | 982 hPa | 0 mm | - | 850 W/m² | - |
| 1777481719 | 5° C | 77% | 983.1 hPa | 0 mm | - | 443 W/m² | - |
| 1777478720 | 5° C | 78% | 984 hPa | 0 mm | - | 293 W/m² | - |
| 1777472120 | 3.89° C | 81% | 984.4 hPa | 0 mm | - | 147 W/m² | - |
| 1777470940 | 4.44° C | 82% | 984 hPa | 0 mm | - | 330 W/m² | - |
| 1777469121 | 3.89° C | 81% | 984.2 hPa | 0 mm | - | 221 W/m² | - |
| 1777461922 | 3.89° C | 83% | 983.8 hPa | 0 mm | - | 54 W/m² | - |
| 1777452924 | 5° C | 88% | 982.9 hPa | 0 mm | - | 0 W/m² | - |
* Rain latest hour (hover to see other rain measurements)
** Current wind speed in m/s (hover to see current wind gust speed)